User: anonymous   Login
Location: Mohawk View
(42.7837°N, 73.7885°W)
Time: 12:03:02
(UTC+00:00)
Language:

Cosmos 2058 Rocket - Orbit

View from above orbital plane
View from above orbital plane
View from above satellite
View from above satellite

Ground track
Ground track

The orbit data is extracted from the following two-line orbital elements,

1 20466U 90010B   21260.55289065  .00000082  00000-0  74423-5 0  9994
2 20466  82.5067 358.9830 0018970 276.3415  83.5638 14.81437572707466
Epoch (UTC): 17 September 2021 13:16:09
Eccentricity: 0.0018970
inclination: 82.5067°
perigee height: 611 km
apogee height: 638 km
right ascension of ascending node: 358.9830°
argument of perigee: 276.3415°
revolutions per day: 14.81437572
mean anomaly at epoch: 83.5638°
orbit number at epoch: 70746

The dashed part of the orbit path shows where the satellite is in the earth's shadow,  

DLR